SCP
0 0 0 -0 -0 0 0 0 0 0 0 0 0 0 0 0 0 0 0 0 -0 -0 -0 0 0 -0 0 -0 -0 -0 -0 -1 -1 -0 -1 -1 -1 -1 -0 -0 -0 -0 -0 -0 -0 -0 -0 -0 -0
0 0 0 -0 0 -0 -0 -0 0 -0 0 0 0 0 0 0 -0 -0 0 -0 -0 -0 0 -0 0 -0 -0 -0 -0 -0 -0 -0 -0 -0 -1 -0 -1 -0 -0 -0 -0 -0 -0 -0 -0 -0 -0 -0 -0
-0 0 -0 0 -0 -0 -0 -0 0 0 0 0 0 0 0 0 -0 -0 0 -0 -0 0 0 -0 0 -0 -0 -0 -0 -0 -0 -0 -1 -1 -1 -1 -0 -0 -0 -0 -0 -0 -0 -0 -0 -0 -0 -0 -0
0 0 0 0 0 -0 -0 -0 -0 0 0 0 0 0 0 0 -0 0 -0 -0 -0 0 0 0 -0 -0 -0 -0 -0 -0 -0 -0 -1 -0 -0 -0 -0 -0 -0 -0 -0 -0 -0 -0 0 0 0 0 0
-0 -0 -0 -0 0 0 -0 -0 -0 0 0 0 0 0 0 -0 -0 -0 -0 -0 -0 0 0 0 -0 -0 -0 -0 -0 -0 -0 -0 -0 -0 -0 -0 -0 -0 -0 -0 -0 -0 -0 0 -0 -0 -0 -0 -0
-0 -0 -0 -0 -0 0 0 -0 0 0 0 -0 -0 0 0 -0 -0 -0 -0 -0 -0 -0 0 0 -0 -0 -0 -0 -0 -0 -0 -0 -0 -0 -0 -0 -0 0 -0 -0 -0 -0 -0 0 -0 -0 -0 -0 -0
0 0 -0 -0 -0 0 0 -0 -0 0 0 0 -0 -0 0 0 -0 -0 -0 -0 -0 -0 -0 -0 0 -0 -0 -0 -0 -0 -0 -0 -0 -0 -0 -0 -0 -0 0 0 0 0 0 0 -0 -0 -0 -0 0
0 0 0 -0 -0 -0 0 0 0 0 0 -0 0 0 0 0 -0 -0 -0 -0 -0 -0 -0 -0 -0 -0 -0 0 -0 -0 -0 -0 -0 -0 -0 -0 -0 -0 0 0 0 0 0 0 0 0 0 0 0
-0 -0 -0 -0 -0 0 0 0 0 0 0 0 0 0 -0 -0 -0 -0 -0 -0 0 -0 -0 -0 -0 -0 -0 -0 -0 -0 -0 -0 -0 -0 -0 0 -0 -0 -0 0 0 0 0 0 0 0 0 -0 -0
0 -0 0 0 -0 0 -0 0 0 0 0 0 0 0 -0 -0 -0 -0 -0 -0 -0 -0 -0 -0 -0 -0 -0 -0 0 0 -0 0 -0 -0 -0 0 -0 0 -0 0 0 0 -0 -0 -0 0 0 -0 -0
0 -0 -0 -0 -0 0 0 0 0 0 0 0 -0 -0 -1 -1 -0 -0 -0 -0 -0 -0 -0 -0 -0 -0 -0 -0 0 0 0 0 0 -0 0 0 0 -0 -0 -0 -0 -0 0 -0 0 -0 -0 -0 -0
-0 -0 -0 0 -0 0 0 0 0 0 0 0 -0 -1 -1 -1 -1 -0 -0 -0 -0 -0 -0 -0 -0 -0 -0 0 0 0 0 0 0 0 -0 -0 -0 0 -0 -0 0 0 -0 -0 -0 -0 -0 0 0
-0 0 -0 0 0 0 0 0 0 0 0 0 -0 -0 -1 -1 -1 -0 -0 -0 -0 -0 -0 -0 -0 -0 0 -0 0 0 0 0 0 0 -0 0 0 0 -0 -0 0 -0 -0 -0 -0 0 0 0 -0
0 -0 0 0 0 0 0 0 0 0 0 -0 -0 -0 -0 -1 -1 -0 -0 -1 -0 -0 -0 -0 -0 -0 -0 -0 0 0 0 0 0 0 0 0 0 -0 -0 -0 -0 -0 -0 -0 -0 0 0 0 -0
0 -0 -0 0 0 0 0 0 0 0 0 -0 -0 -0 -0 -0 -0 -0 -1 -1 -1 -0 -0 -0 -0 -0 -0 -0 -0 0 -0 0 -0 0 0 0 0 -0 -0 -0 -0 0 0 -0 -0 -0 -0 -0 -0
-0 -0 -0 -0 0 0 0 0 0 0 -0 0 -0 -0 -0 -0 -1 -1 -0 -0 -0 -0 -0 -0 -0 -0 -0 -0 0 0 -0 -0 0 0 -0 0 -0 -0 -0 0 0 0 0 -0 -0 -0 -0 -0 -0
-0 -0 0 0 0 0 0 -0 0 -0 0 0 0 -0 -0 -0 -0 -0 -0 -0 -1 -1 -0 -0 -0 -0 -0 0 0 0 0 0 0 0 -0 0 -0 0 -0 0 0 0 0 -0 -0 -0 -0 -0 -0
0 0 -0 -0 -0 0 0 -0 0 -0 0 0 0 0 -0 -0 -1 -0 -0 -0 -0 -1 -0 -0 -0 -0 -0 0 0 0 -0 0 -0 0 -0 0 0 -0 -0 -0 -0 -0 0 0 0 -0 -0 -0 -0
0 -0 -0 0 0 0 -0 -0 -0 -0 -0 0 -0 0 -0 -1 -0 -0 -0 -1 -0 -0 -0 -0 -0 -0 -0 0 0 0 0 0 -0 -0 -0 0 -0 -0 0 -0 -0 0 0 0 0 0 0 -0 -0
0 -0 -0 0 0 -0 -0 0 -0 -0 -0 -0 -0 -0 -0 -0 -0 -0 -0 -0 -1 -0 -0 -0 -0 -0 -0 0 0 0 0 0 0 0 0 0 0 0 0 0 0 0 0 -0 -0 -0 0 0 0
0 -0 0 -0 0 -0 -0 -0 -0 -0 0 -0 -0 -0 -0 -0 -0 -0 -0 -0 -0 -0 -1 -0 -0 -0 -0 -0 0 0 0 0 0 0 0 0 0 0 0 0 -0 0 0 0 0 0 0 0 0
0 0 0 0 0 -0 -0 -0 -0 -0 -0 0 0 0 0 0 -0 -0 -1 -0 -0 -0 0 -0 -0 -0 -0 -0 -0 -0 0 0 0 0 0 0 0 0 0 0 0 0 0 0 0 0 0 0 0
0 0 0 -0 -0 0 0 0 0 -0 0 -0 -0 0 0 0 -0 -0 -1 -1 -0 0 0 -0 -0 -0 -0 -0 -0 -0 -0 0 0 0 0 0 0 0 0 0 0 0 0 0 0 0 0 0 0
-0 0 0 0 -0 0 -0 -0 0 0 0 -0 -0 -0 0 0 -0 -0 -0 -0 -0 0 -0 -0 -0 -0 -0 -0 -0 -0 -0 -0 0 0 0 0 0 0 0 0 0 0 0 0 -0 0 0 0 0
0 -0 0 0 0 0 0 0 0 0 0 0 0 0 0 0 -0 -0 0 0 0 0 -0 -1 -0 -0 -0 -0 -0 -0 -0 -0 -0 0 0 0 0 0 0 0 0 0 0 0 0 0 0 0 0
-0 -0 0 0 0 0 0 0 0 0 0 0 0 0 0 0 -0 0 0 0 0 0 0 -0 0 -0 -0 -0 -0 0 -0 0 0 0 0 0 0 0 0 0 0 0 0 0 0 0 0 0 0
-0 0 0 0 0 0 0 0 0 0 0 0 0 0 0 0 0 0 0 0 -0 -0 0 -0 -0 -0 -0 -1 -0 0 -0 -0 -0 -0 0 0 0 0 0 0 0 0 0 0 0 0 0 0 0
0 0 0 0 0 0 0 0 0 0 0 0 0 0 0 0 0 0 0 0 0 0 0 0 0 -0 -0 -0 -0 -0 -0 -0 -0 0 0 0 -0 0 0 0 0 0 0 0 0 0 0 0 0
0 0 0 0 0 0 0 0 0 0 0 0 0 -0 -0 -0 0 0 0 0 0 0 0 1 1 -0 -0 -0 -0 -0 -0 -0 0 0 -0 0 0 0 0 0 0 0 0 0 0 0 0 0 0
0 0 0 0 0 0 0 0 0 0 0 0 0 -0 0 -0 0 0 0 0 0 0 1 -0 0 0 -0 -0 -0 -1 -0 -0 -0 0 -0 -0 0 0 0 0 0 0 0 0 0 0 0 0 -0
Wind_Speed_500mb
19 12 11 7 9 9 5 10 9 9 2 6 37 7 10 6 1 6 34 57 55 56 53 52 49 46 41 41 42 44 47 47 49 50 47 46 44 45 44 37 34 31 28 25 25 22 19 17 16
22 10 13 10 10 8 8 11 11 7 12 40 26 16 7 4 4 32 62 48 56 58 53 53 54 52 47 44 42 42 45 46 46 48 41 45 44 43 40 34 34 31 26 22 20 18 15 13 13
21 12 12 8 6 5 8 6 12 21 11 7 7 13 7 7 22 67 42 56 57 54 52 51 53 53 52 46 44 41 40 41 42 40 40 42 43 43 38 36 34 31 26 20 17 16 14 13 11
13 6 11 8 6 4 5 14 14 11 12 22 24 10 14 7 57 42 56 55 52 51 49 48 49 50 49 46 45 43 42 41 40 36 38 43 44 42 37 34 31 27 21 18 15 12 11 10 10
7 4 8 5 8 5 9 20 28 8 4 17 15 7 11 35 27 47 55 53 51 51 46 43 44 44 43 42 42 44 43 38 37 36 38 42 41 40 35 32 29 25 20 16 12 9 9 8 7
3 3 6 4 6 14 15 20 18 14 13 25 16 16 12 20 43 49 49 51 47 47 45 43 42 42 39 39 40 40 37 39 32 30 36 37 39 31 32 31 29 25 20 14 10 8 9 8 9
11 6 7 3 6 9 12 36 23 17 17 7 34 8 10 27 48 46 47 45 44 42 42 42 41 40 38 36 35 34 35 35 30 26 34 31 32 34 28 28 26 23 20 15 12 9 9 8 10
4 5 4 2 2 1 16 13 19 14 8 22 26 11 14 50 51 51 52 49 46 40 37 37 38 38 37 35 32 31 28 28 28 25 29 29 31 32 40 32 29 24 20 17 12 10 11 7 9
8 7 2 7 9 8 27 11 11 4 23 9 10 13 27 62 59 56 52 55 51 47 39 35 34 31 32 30 29 28 27 24 24 23 25 28 35 35 30 40 35 29 22 19 15 12 11 8 11
8 7 13 8 10 11 31 30 23 13 13 8 9 27 62 66 68 65 63 62 56 51 47 42 34 31 31 31 30 30 29 27 21 20 21 23 24 40 41 33 42 32 25 22 19 17 12 13 12
12 10 7 8 12 30 36 18 31 18 6 17 42 56 68 74 73 67 62 58 53 45 46 47 42 35 32 32 30 30 26 22 19 19 20 19 20 30 40 37 45 31 24 19 18 15 14 16 15
7 10 18 13 20 17 25 23 16 34 14 30 52 64 79 82 81 76 66 59 49 48 46 47 44 41 38 33 30 27 23 21 20 19 21 24 22 19 22 30 33 27 26 21 20 16 16 18 18
4 8 18 26 26 27 28 34 18 38 13 44 57 66 81 89 87 75 60 51 49 38 52 53 47 40 38 37 31 29 24 21 20 21 18 28 23 16 24 27 25 19 23 20 19 17 17 19 21
11 12 18 21 29 17 15 8 15 29 32 55 62 71 73 88 89 79 72 56 67 50 54 56 49 41 39 39 35 29 25 22 22 18 20 25 26 20 21 25 20 15 13 13 18 17 15 15 21
16 8 4 16 23 10 16 7 15 28 48 57 66 66 68 82 93 88 79 69 64 61 55 56 49 44 43 36 37 32 29 28 24 18 21 21 26 23 23 18 16 14 15 17 20 22 20 20 27
10 7 4 7 11 9 18 18 14 40 61 53 59 66 71 79 92 90 78 73 62 58 60 58 52 46 42 42 40 38 31 28 26 25 22 21 25 26 22 21 15 16 18 21 24 24 22 19 21
12 7 6 12 17 8 9 17 11 59 64 52 60 61 71 82 79 84 84 73 74 58 58 59 55 48 45 41 40 38 33 29 27 29 26 24 27 29 25 18 17 18 18 21 19 18 21 23 24
12 10 11 8 6 9 9 25 2 42 46 48 62 64 68 75 85 78 81 71 74 66 61 59 55 50 51 44 43 38 33 37 33 35 34 30 27 30 30 23 23 23 20 20 24 18 21 21 22
11 7 17 7 6 8 15 14 22 37 51 39 51 64 74 82 75 78 77 70 69 70 66 59 56 52 56 54 50 44 43 42 43 37 40 40 33 30 33 36 30 29 25 21 18 17 17 20 22
15 12 13 11 9 9 5 18 21 12 24 62 61 65 82 74 74 74 78 72 71 65 66 61 55 50 51 53 49 45 41 43 44 39 44 38 36 35 32 35 36 35 27 21 21 23 24 26 22
8 12 5 10 11 8 9 17 11 10 18 26 48 78 74 77 81 75 75 76 71 67 62 59 53 45 48 50 48 50 45 47 51 49 50 43 39 42 34 29 36 40 35 30 28 28 27 27 23
4 3 6 7 7 6 6 9 14 14 17 9 15 49 71 71 74 81 74 75 74 64 63 60 54 48 46 46 48 48 47 48 53 56 54 47 42 45 40 38 30 31 37 29 27 29 29 31 25
14 3 6 6 5 5 8 6 15 10 14 12 9 33 49 64 77 81 81 74 71 62 60 60 54 49 47 47 46 49 48 41 40 49 54 54 50 45 45 43 41 48 43 31 31 29 31 31 29
5 8 13 10 6 6 10 8 12 10 11 10 18 16 28 61 72 76 71 71 67 61 65 62 57 52 45 48 51 51 46 41 39 39 47 54 58 55 49 43 31 40 41 35 32 30 32 29 27
13 14 8 10 10 9 6 2 3 21 13 12 12 24 6 31 38 35 41 54 53 58 61 64 60 55 50 46 50 52 47 42 45 47 45 42 49 60 56 53 37 42 41 33 30 30 32 28 30
7 11 10 5 5 11 6 8 7 11 15 33 44 33 25 32 44 46 38 40 50 56 60 66 65 55 55 51 47 48 47 42 47 45 45 43 42 45 44 46 44 44 37 31 28 36 29 29 24
1 6 6 11 3 4 7 3 4 9 20 32 38 53 46 47 53 60 43 13 28 46 59 61 62 63 61 54 46 42 48 43 43 43 43 37 30 31 35 35 42 41 39 30 28 28 28 27 25
14 5 9 9 1 5 9 9 8 6 12 13 20 35 55 56 55 56 52 17 23 45 58 68 69 69 68 62 55 41 39 44 39 39 41 30 30 36 39 40 42 38 35 32 31 30 33 27 23
11 9 9 8 7 7 4 11 11 10 3 6 9 40 49 54 60 68 55 18 22 44 51 54 62 63 68 67 65 50 42 42 41 36 35 30 34 40 43 44 41 41 34 30 37 38 36 35 31
10 5 8 9 12 4 8 11 8 12 11 8 15 27 36 47 46 51 50 27 22 36 43 35 25 42 59 67 69 59 48 46 45 37 33 28 32 40 45 46 49 45 42 39 40 44 43 38 37
Wind_Direction_500mb
8 359 35 344 57 55 358 357 346 91 282 200 157 177 143 28 138 203 142 157 161 156 154 153 158 159 158 155 157 156 155 154 154 154 155 157 153 153 156 154 154 150 145 142 132 130 126 122 120
8 331 356 50 73 61 330 337 55 40 99 107 93 93 57 71 99 140 147 158 164 157 158 155 156 164 164 160 157 155 161 163 163 164 166 162 159 157 162 160 157 154 155 155 146 146 143 140 136
342 356 22 65 67 79 87 295 124 109 135 121 104 70 127 121 147 142 153 157 163 162 160 157 159 163 164 161 156 153 153 159 168 171 170 168 168 165 164 162 161 162 161 159 158 156 157 151 148
313 10 59 72 103 49 270 180 187 147 85 107 114 75 85 30 140 151 154 160 164 163 163 161 161 161 160 162 161 156 156 155 162 164 182 175 175 175 173 171 172 174 176 172 172 172 175 176 184
258 27 57 40 95 192 338 236 166 107 96 70 117 82 59 144 144 154 157 161 164 163 164 165 165 166 165 165 166 165 163 160 161 173 183 177 181 182 182 179 182 181 178 179 183 204 216 220 230
147 327 57 23 120 174 214 184 130 113 135 109 94 100 117 187 162 157 161 164 168 165 166 169 169 170 170 171 174 176 174 172 176 181 177 181 184 199 192 190 185 184 185 192 196 209 227 243 248
158 145 128 338 333 126 157 148 158 170 146 92 132 94 144 172 169 160 163 170 175 175 172 175 177 179 180 178 180 182 181 183 186 191 191 193 191 201 202 199 197 195 197 201 211 232 252 256 259
192 115 59 215 167 195 133 139 165 126 181 154 156 152 168 172 171 168 170 174 180 182 184 184 183 184 185 181 185 188 189 193 198 203 210 216 209 211 219 213 211 209 212 214 234 255 254 256 243
178 60 160 193 169 141 115 111 188 234 157 137 183 177 198 169 176 172 173 177 181 184 186 190 190 189 189 184 184 191 193 195 201 208 219 213 216 216 208 214 214 215 218 236 255 252 249 235 205
118 119 218 212 174 122 146 153 179 153 183 187 164 161 162 173 182 180 178 179 181 186 188 195 196 197 197 191 192 195 192 199 197 198 216 204 215 218 222 221 213 216 228 245 249 246 232 210 197
169 164 212 206 159 140 175 173 184 153 245 213 174 164 166 180 186 191 188 191 185 191 196 199 201 199 205 199 198 198 194 195 197 197 199 196 201 210 221 219 204 213 230 236 237 220 208 198 195
161 214 174 186 187 171 157 180 208 178 216 187 184 170 169 184 192 197 198 193 195 198 206 203 204 204 206 204 205 203 202 198 198 196 193 184 170 173 178 176 196 221 222 215 212 209 204 202 207
350 216 203 183 212 218 170 184 198 203 210 166 178 177 181 188 196 200 199 202 191 209 213 205 202 204 205 202 202 199 201 197 184 194 196 196 185 192 184 188 196 209 216 214 209 202 202 205 191
271 283 218 206 218 231 177 224 184 214 180 166 177 182 189 193 200 199 208 206 205 218 211 204 205 201 196 198 198 198 199 187 192 200 201 205 200 203 198 197 198 221 208 205 204 201 203 212 217
331 326 276 225 210 240 165 297 229 190 178 176 186 193 193 200 201 208 210 209 213 218 208 210 207 205 202 204 203 205 199 195 197 191 198 207 205 211 200 197 219 230 234 217 214 227 234 236 238
4 52 0 279 170 228 148 267 240 196 180 186 188 193 199 198 203 210 215 217 216 217 212 216 212 211 212 211 206 206 203 205 209 207 207 215 214 218 214 222 236 227 232 235 235 234 243 237 240
359 319 235 304 210 131 171 255 279 187 187 191 196 196 199 202 207 213 218 222 219 222 217 218 221 219 218 217 220 216 221 222 218 217 216 219 220 219 224 239 235 236 229 229 228 232 237 244 246
292 333 299 238 293 175 214 259 190 198 195 200 201 201 204 207 211 216 218 223 223 222 220 221 223 223 222 225 223 218 225 225 225 222 218 219 222 226 224 230 228 231 235 234 233 242 247 233 241
267 230 246 260 228 214 242 263 267 194 213 211 203 207 208 212 217 218 222 227 225 223 218 218 221 225 224 226 220 213 226 225 225 225 222 219 221 226 228 229 231 233 241 242 221 222 220 216 227
227 266 285 301 324 173 223 271 269 178 216 212 207 207 215 215 218 221 222 223 224 220 216 215 220 226 225 226 226 224 231 232 231 236 228 228 225 228 236 235 228 225 233 220 215 221 228 229 217
218 216 238 224 327 337 333 307 316 264 251 248 224 223 219 213 214 213 216 219 220 218 217 215 216 220 223 224 225 228 235 236 231 227 223 228 228 222 236 242 233 231 233 243 240 224 224 220 228
268 191 237 278 57 284 59 282 315 317 316 21 205 201 213 211 216 210 211 212 215 216 219 217 218 218 219 223 224 230 237 232 231 232 233 234 233 228 229 230 234 237 238 235 226 212 222 221 225
227 20 11 353 71 5 341 73 270 336 353 341 296 237 218 216 213 209 210 209 213 211 215 218 217 218 224 221 224 230 239 244 249 245 241 241 238 233 227 232 254 240 234 223 206 215 223 230 231
38 55 39 44 50 29 259 140 287 333 316 1 23 341 246 224 217 211 207 206 211 212 218 221 217 217 222 226 226 228 237 241 237 236 238 242 242 236 235 235 243 222 222 210 211 218 221 232 224
69 51 354 3 5 233 342 61 281 328 355 113 60 18 22 212 191 169 177 193 208 215 220 223 219 221 222 221 227 231 232 238 246 245 249 248 244 235 237 229 240 228 211 207 214 213 220 230 227
35 128 148 223 245 268 314 358 317 323 52 67 62 65 94 123 137 153 158 185 214 217 228 232 225 221 225 226 229 234 237 241 247 251 262 266 250 245 233 232 224 217 211 213 220 226 225 224 227
26 3 196 109 56 6 295 206 335 356 31 45 55 68 91 127 147 139 132 96 268 235 236 233 232 232 232 233 233 239 239 245 249 255 267 265 248 223 216 219 210 212 213 211 219 218 215 218 229
97 182 24 9 287 279 293 286 228 324 38 25 43 73 103 133 143 147 147 126 245 235 239 231 232 234 236 238 242 242 245 248 253 256 264 250 230 227 223 207 208 213 209 212 218 216 206 213 218
17 16 39 114 125 165 279 267 201 194 225 80 91 103 120 143 153 158 169 178 175 246 241 242 232 237 240 241 243 245 247 254 249 248 260 246 232 221 217 206 208 204 206 215 219 210 210 217 219
88 93 106 109 295 186 158 273 253 197 211 222 117 116 117 149 163 178 189 178 209 227 229 243 254 254 253 247 245 247 248 251 248 247 243 226 239 230 218 213 211 213 215 218 218 209 218 220 218
Wind_Speed_850mb
19 12 11 7 9 9 5 10 9 9 2 6 37 7 10 6 1 6 34 57 55 56 53 52 49 46 41 41 42 44 47 47 49 50 47 46 44 45 44 37 34 31 28 25 25 22 19 17 16
22 10 13 10 10 8 8 11 11 7 12 40 26 16 7 4 4 32 62 48 56 58 53 53 54 52 47 44 42 42 45 46 46 48 41 45 44 43 40 34 34 31 26 22 20 18 15 13 13
21 12 12 8 6 5 8 6 12 21 11 7 7 13 7 7 22 67 42 56 57 54 52 51 53 53 52 46 44 41 40 41 42 40 40 42 43 43 38 36 34 31 26 20 17 16 14 13 11
13 6 11 8 6 4 5 14 14 11 12 22 24 10 14 7 57 42 56 55 52 51 49 48 49 50 49 46 45 43 42 41 40 36 38 43 44 42 37 34 31 27 21 18 15 12 11 10 10
7 4 8 5 8 5 9 20 28 8 4 17 15 7 11 35 27 47 55 53 51 51 46 43 44 44 43 42 42 44 43 38 37 36 38 42 41 40 35 32 29 25 20 16 12 9 9 8 7
3 3 6 4 6 14 15 20 18 14 13 25 16 16 12 20 43 49 49 51 47 47 45 43 42 42 39 39 40 40 37 39 32 30 36 37 39 31 32 31 29 25 20 14 10 8 9 8 9
11 6 7 3 6 9 12 36 23 17 17 7 34 8 10 27 48 46 47 45 44 42 42 42 41 40 38 36 35 34 35 35 30 26 34 31 32 34 28 28 26 23 20 15 12 9 9 8 10
4 5 4 2 2 1 16 13 19 14 8 22 26 11 14 50 51 51 52 49 46 40 37 37 38 38 37 35 32 31 28 28 28 25 29 29 31 32 40 32 29 24 20 17 12 10 11 7 9
8 7 2 7 9 8 27 11 11 4 23 9 10 13 27 62 59 56 52 55 51 47 39 35 34 31 32 30 29 28 27 24 24 23 25 28 35 35 30 40 35 29 22 19 15 12 11 8 11
8 7 13 8 10 11 31 30 23 13 13 8 9 27 62 66 68 65 63 62 56 51 47 42 34 31 31 31 30 30 29 27 21 20 21 23 24 40 41 33 42 32 25 22 19 17 12 13 12
12 10 7 8 12 30 36 18 31 18 6 17 42 56 68 74 73 67 62 58 53 45 46 47 42 35 32 32 30 30 26 22 19 19 20 19 20 30 40 37 45 31 24 19 18 15 14 16 15
7 10 18 13 20 17 25 23 16 34 14 30 52 64 79 82 81 76 66 59 49 48 46 47 44 41 38 33 30 27 23 21 20 19 21 24 22 19 22 30 33 27 26 21 20 16 16 18 18
4 8 18 26 26 27 28 34 18 38 13 44 57 66 81 89 87 75 60 51 49 38 52 53 47 40 38 37 31 29 24 21 20 21 18 28 23 16 24 27 25 19 23 20 19 17 17 19 21
11 12 18 21 29 17 15 8 15 29 32 55 62 71 73 88 89 79 72 56 67 50 54 56 49 41 39 39 35 29 25 22 22 18 20 25 26 20 21 25 20 15 13 13 18 17 15 15 21
16 8 4 16 23 10 16 7 15 28 48 57 66 66 68 82 93 88 79 69 64 61 55 56 49 44 43 36 37 32 29 28 24 18 21 21 26 23 23 18 16 14 15 17 20 22 20 20 27
10 7 4 7 11 9 18 18 14 40 61 53 59 66 71 79 92 90 78 73 62 58 60 58 52 46 42 42 40 38 31 28 26 25 22 21 25 26 22 21 15 16 18 21 24 24 22 19 21
12 7 6 12 17 8 9 17 11 59 64 52 60 61 71 82 79 84 84 73 74 58 58 59 55 48 45 41 40 38 33 29 27 29 26 24 27 29 25 18 17 18 18 21 19 18 21 23 24
12 10 11 8 6 9 9 25 2 42 46 48 62 64 68 75 85 78 81 71 74 66 61 59 55 50 51 44 43 38 33 37 33 35 34 30 27 30 30 23 23 23 20 20 24 18 21 21 22
11 7 17 7 6 8 15 14 22 37 51 39 51 64 74 82 75 78 77 70 69 70 66 59 56 52 56 54 50 44 43 42 43 37 40 40 33 30 33 36 30 29 25 21 18 17 17 20 22
15 12 13 11 9 9 5 18 21 12 24 62 61 65 82 74 74 74 78 72 71 65 66 61 55 50 51 53 49 45 41 43 44 39 44 38 36 35 32 35 36 35 27 21 21 23 24 26 22
8 12 5 10 11 8 9 17 11 10 18 26 48 78 74 77 81 75 75 76 71 67 62 59 53 45 48 50 48 50 45 47 51 49 50 43 39 42 34 29 36 40 35 30 28 28 27 27 23
4 3 6 7 7 6 6 9 14 14 17 9 15 49 71 71 74 81 74 75 74 64 63 60 54 48 46 46 48 48 47 48 53 56 54 47 42 45 40 38 30 31 37 29 27 29 29 31 25
14 3 6 6 5 5 8 6 15 10 14 12 9 33 49 64 77 81 81 74 71 62 60 60 54 49 47 47 46 49 48 41 40 49 54 54 50 45 45 43 41 48 43 31 31 29 31 31 29
5 8 13 10 6 6 10 8 12 10 11 10 18 16 28 61 72 76 71 71 67 61 65 62 57 52 45 48 51 51 46 41 39 39 47 54 58 55 49 43 31 40 41 35 32 30 32 29 27
13 14 8 10 10 9 6 2 3 21 13 12 12 24 6 31 38 35 41 54 53 58 61 64 60 55 50 46 50 52 47 42 45 47 45 42 49 60 56 53 37 42 41 33 30 30 32 28 30
7 11 10 5 5 11 6 8 7 11 15 33 44 33 25 32 44 46 38 40 50 56 60 66 65 55 55 51 47 48 47 42 47 45 45 43 42 45 44 46 44 44 37 31 28 36 29 29 24
1 6 6 11 3 4 7 3 4 9 20 32 38 53 46 47 53 60 43 13 28 46 59 61 62 63 61 54 46 42 48 43 43 43 43 37 30 31 35 35 42 41 39 30 28 28 28 27 25
14 5 9 9 1 5 9 9 8 6 12 13 20 35 55 56 55 56 52 17 23 45 58 68 69 69 68 62 55 41 39 44 39 39 41 30 30 36 39 40 42 38 35 32 31 30 33 27 23
11 9 9 8 7 7 4 11 11 10 3 6 9 40 49 54 60 68 55 18 22 44 51 54 62 63 68 67 65 50 42 42 41 36 35 30 34 40 43 44 41 41 34 30 37 38 36 35 31
10 5 8 9 12 4 8 11 8 12 11 8 15 27 36 47 46 51 50 27 22 36 43 35 25 42 59 67 69 59 48 46 45 37 33 28 32 40 45 46 49 45 42 39 40 44 43 38 37
Wind_Direction_850mb
8 359 35 344 57 55 358 357 346 91 282 200 157 177 143 28 138 203 142 157 161 156 154 153 158 159 158 155 157 156 155 154 154 154 155 157 153 153 156 154 154 150 145 142 132 130 126 122 120
8 331 356 50 73 61 330 337 55 40 99 107 93 93 57 71 99 140 147 158 164 157 158 155 156 164 164 160 157 155 161 163 163 164 166 162 159 157 162 160 157 154 155 155 146 146 143 140 136
342 356 22 65 67 79 87 295 124 109 135 121 104 70 127 121 147 142 153 157 163 162 160 157 159 163 164 161 156 153 153 159 168 171 170 168 168 165 164 162 161 162 161 159 158 156 157 151 148
313 10 59 72 103 49 270 180 187 147 85 107 114 75 85 30 140 151 154 160 164 163 163 161 161 161 160 162 161 156 156 155 162 164 182 175 175 175 173 171 172 174 176 172 172 172 175 176 184
258 27 57 40 95 192 338 236 166 107 96 70 117 82 59 144 144 154 157 161 164 163 164 165 165 166 165 165 166 165 163 160 161 173 183 177 181 182 182 179 182 181 178 179 183 204 216 220 230
147 327 57 23 120 174 214 184 130 113 135 109 94 100 117 187 162 157 161 164 168 165 166 169 169 170 170 171 174 176 174 172 176 181 177 181 184 199 192 190 185 184 185 192 196 209 227 243 248
158 145 128 338 333 126 157 148 158 170 146 92 132 94 144 172 169 160 163 170 175 175 172 175 177 179 180 178 180 182 181 183 186 191 191 193 191 201 202 199 197 195 197 201 211 232 252 256 259
192 115 59 215 167 195 133 139 165 126 181 154 156 152 168 172 171 168 170 174 180 182 184 184 183 184 185 181 185 188 189 193 198 203 210 216 209 211 219 213 211 209 212 214 234 255 254 256 243
178 60 160 193 169 141 115 111 188 234 157 137 183 177 198 169 176 172 173 177 181 184 186 190 190 189 189 184 184 191 193 195 201 208 219 213 216 216 208 214 214 215 218 236 255 252 249 235 205
118 119 218 212 174 122 146 153 179 153 183 187 164 161 162 173 182 180 178 179 181 186 188 195 196 197 197 191 192 195 192 199 197 198 216 204 215 218 222 221 213 216 228 245 249 246 232 210 197
169 164 212 206 159 140 175 173 184 153 245 213 174 164 166 180 186 191 188 191 185 191 196 199 201 199 205 199 198 198 194 195 197 197 199 196 201 210 221 219 204 213 230 236 237 220 208 198 195
161 214 174 186 187 171 157 180 208 178 216 187 184 170 169 184 192 197 198 193 195 198 206 203 204 204 206 204 205 203 202 198 198 196 193 184 170 173 178 176 196 221 222 215 212 209 204 202 207
350 216 203 183 212 218 170 184 198 203 210 166 178 177 181 188 196 200 199 202 191 209 213 205 202 204 205 202 202 199 201 197 184 194 196 196 185 192 184 188 196 209 216 214 209 202 202 205 191
271 283 218 206 218 231 177 224 184 214 180 166 177 182 189 193 200 199 208 206 205 218 211 204 205 201 196 198 198 198 199 187 192 200 201 205 200 203 198 197 198 221 208 205 204 201 203 212 217
331 326 276 225 210 240 165 297 229 190 178 176 186 193 193 200 201 208 210 209 213 218 208 210 207 205 202 204 203 205 199 195 197 191 198 207 205 211 200 197 219 230 234 217 214 227 234 236 238
4 52 0 279 170 228 148 267 240 196 180 186 188 193 199 198 203 210 215 217 216 217 212 216 212 211 212 211 206 206 203 205 209 207 207 215 214 218 214 222 236 227 232 235 235 234 243 237 240
359 319 235 304 210 131 171 255 279 187 187 191 196 196 199 202 207 213 218 222 219 222 217 218 221 219 218 217 220 216 221 222 218 217 216 219 220 219 224 239 235 236 229 229 228 232 237 244 246
292 333 299 238 293 175 214 259 190 198 195 200 201 201 204 207 211 216 218 223 223 222 220 221 223 223 222 225 223 218 225 225 225 222 218 219 222 226 224 230 228 231 235 234 233 242 247 233 241
267 230 246 260 228 214 242 263 267 194 213 211 203 207 208 212 217 218 222 227 225 223 218 218 221 225 224 226 220 213 226 225 225 225 222 219 221 226 228 229 231 233 241 242 221 222 220 216 227
227 266 285 301 324 173 223 271 269 178 216 212 207 207 215 215 218 221 222 223 224 220 216 215 220 226 225 226 226 224 231 232 231 236 228 228 225 228 236 235 228 225 233 220 215 221 228 229 217
218 216 238 224 327 337 333 307 316 264 251 248 224 223 219 213 214 213 216 219 220 218 217 215 216 220 223 224 225 228 235 236 231 227 223 228 228 222 236 242 233 231 233 243 240 224 224 220 228
268 191 237 278 57 284 59 282 315 317 316 21 205 201 213 211 216 210 211 212 215 216 219 217 218 218 219 223 224 230 237 232 231 232 233 234 233 228 229 230 234 237 238 235 226 212 222 221 225
227 20 11 353 71 5 341 73 270 336 353 341 296 237 218 216 213 209 210 209 213 211 215 218 217 218 224 221 224 230 239 244 249 245 241 241 238 233 227 232 254 240 234 223 206 215 223 230 231
38 55 39 44 50 29 259 140 287 333 316 1 23 341 246 224 217 211 207 206 211 212 218 221 217 217 222 226 226 228 237 241 237 236 238 242 242 236 235 235 243 222 222 210 211 218 221 232 224
69 51 354 3 5 233 342 61 281 328 355 113 60 18 22 212 191 169 177 193 208 215 220 223 219 221 222 221 227 231 232 238 246 245 249 248 244 235 237 229 240 228 211 207 214 213 220 230 227
35 128 148 223 245 268 314 358 317 323 52 67 62 65 94 123 137 153 158 185 214 217 228 232 225 221 225 226 229 234 237 241 247 251 262 266 250 245 233 232 224 217 211 213 220 226 225 224 227
26 3 196 109 56 6 295 206 335 356 31 45 55 68 91 127 147 139 132 96 268 235 236 233 232 232 232 233 233 239 239 245 249 255 267 265 248 223 216 219 210 212 213 211 219 218 215 218 229
97 182 24 9 287 279 293 286 228 324 38 25 43 73 103 133 143 147 147 126 245 235 239 231 232 234 236 238 242 242 245 248 253 256 264 250 230 227 223 207 208 213 209 212 218 216 206 213 218
17 16 39 114 125 165 279 267 201 194 225 80 91 103 120 143 153 158 169 178 175 246 241 242 232 237 240 241 243 245 247 254 249 248 260 246 232 221 217 206 208 204 206 215 219 210 210 217 219
88 93 106 109 295 186 158 273 253 197 211 222 117 116 117 149 163 178 189 178 209 227 229 243 254 254 253 247 245 247 248 251 248 247 243 226 239 230 218 213 211 213 215 218 218 209 218 220 218